Regional Weather Roundup
Issued by NWS State College, PA

Home | Current Version | Previous Version | Text Only | Print | Product List | Glossary On
Versions: 1 2 3 4 5 6 7 8 9 10 11 12 13 14 15 16 17 18 19 20 21 22 23 24 25 26 27 28 29 30 31 32 33 34 35 36 37 38 39 40 41 42 43 44 45 46 47 48 49 50
000
ASUS41 KCTP 302103
RWRCTP

REGIONAL WEATHER ROUNDUP
NATIONAL WEATHER SERVICE STATE COLLEGE PA
500 PM EDT SAT AUG 30 2014

Note: "fair" indicates few or no clouds below 12,000 feet with no
significant weather and/or obstructions to visibility.

* = STATION THAT DOES NOT REPORT PRECIPITATION /E.G. RAIN...SNOW...ETC/
    THUNDER OR FOG.

PAZ002>004-007>009-013>016-020>023-029>032-302200-
WESTERN PENNSYLVANIA

CITY           SKY/WX    TMP DP  RH WIND       PRES   REMARKS
ERIE           PTSUNNY   87  63  44 SW15      29.97F
MEADVILLE      MOSUNNY   83  63  50 S12       30.04S
FRANKLIN*      MOSUNNY   82  66  57 S14       30.07F
NEW CASTLE     FAIR      88  67  49 S8        30.04F
BEAVER COUNTY  MOSUNNY   88  66  48 S7        30.05F
BUTLER*        MOSUNNY   84  68  58 SW7       30.07F
PITTSBURGH INT PTSUNNY   86  65  49 SW12      30.05F
PITTSBURGH     MOSUNNY   86  64  47 S10       30.06F
INDIANA*       SUNNY     88  68  51 SW7       30.12F
LATROBE        PTSUNNY   88  68  51 SW12      30.08F
WASHINGTON CO* MOSUNNY   86  68  54 SW7       30.07F
$$

PAZ004>006-010>012-017>019-024>028-033>037-041-042-045-046-049>053-302200-
CENTRAL PENNSYLVANIA

CITY           SKY/WX    TMP DP  RH WIND       PRES   REMARKS
BRADFORD       PTSUNNY   80  67  64 S10G17    30.10F
DUBOIS         PTSUNNY   82  65  56 SW14      30.09F
CLEARFIELD     PTSUNNY   81  69  67 VRB5      30.11F
JOHNSTOWN      PTSUNNY   78  66  66 SE5       30.14F
ALTOONA        MOSUNNY   81  68  64 S9        30.13F
STATE COLLEGE  PTSUNNY   75  66  73 S6        30.13F
WILLIAMSPORT   CLOUDY    74  64  71 MISG      30.12F
SELINSGROVE    CLOUDY    76  66  71 VRB5      30.14F
FT INDIANTOWN  CLOUDY    77  66  68 SE6       30.15F
CAPITAL CITY   CLOUDY    78  66  66 SE7       30.13F
HARRISBURG     CLOUDY    79  67  66 SE5       30.13F
YORK           CLOUDY    79  67  66 VRB7      30.14F
$$

PAZ038>040-043-044-047-048-054-055-060>062-067>071-302200-
EASTERN PENNSYLVANIA

CITY           SKY/WX    TMP DP  RH WIND       PRES   REMARKS
SCRANTON       CLOUDY    74  62  66 S8        30.16S
MOUNT POCONO   CLOUDY    67  60  78 S7        30.21F
ALLENTOWN      CLOUDY    77  62  59 S9        30.17F
QUAKERTOWN*    MOCLDY    75  64  69 MISG      30.18F
READING        MOSUNNY   80  61  52 S9        30.15F
LANCASTER      PTSUNNY   78  62  57 S9        30.15F
COATESVILLE    CLOUDY    75  66  73 S5        30.18F
POTTSTOWN      CLOUDY    76  62  62 S7        30.18F
BLUE BELL      PTSUNNY   79  63  57 S7        30.17S
DOYLESTOWN     CLOUDY    75  62  64 S5        30.17F
WILLOW GROVE   NOT AVBL
NORTH PHILA    CLOUDY    79  61  53 S7        30.18F
PHILADELPHIA   PTSUNNY   79  61  53 S9        30.17F
$$


USA.gov is the U.S. government's official web portal to all federal, state and local government web resources and services.